Dewpoint
66 66 65 66 66 66 66 66 66 67 67 66 66 65 65 66 67 66 65 64 64 64 63 62 60 59 58 56 55 55 44 43
64 64 64 65 65 65 65 65 66 66 66 65 65 64 64 64 65 64 64 64 64 62 62 61 58 57 56 56 54 55 41 41
62 62 62 64 64 64 64 66 65 64 64 63 59 52 52 55 62 64 64 64 63 61 60 60 58 55 54 52 53 41 39 39
57 58 60 59 61 62 63 63 61 60 58 59 54 56 56 54 61 63 63 63 62 61 59 58 55 45 44 49 42 41 36 36
56 57 58 57 59 60 61 59 58 58 60 58 59 59 58 58 58 54 55 57 50 50 51 50 50 48 47 45 42 38 34 33
56 58 59 60 60 60 60 57 58 57 59 62 61 59 60 58 54 54 54 52 51 51 51 52 51 49 47 45 42 36 34 32
56 57 57 59 60 60 59 55 54 58 58 59 59 58 60 56 56 54 54 53 53 52 52 50 49 47 44 41 38 38 38 35
56 58 58 58 57 58 58 57 56 57 59 59 62 59 60 55 56 54 54 53 53 52 50 50 48 46 43 39 38 36 38 40
56 56 56 54 53 54 53 56 55 56 56 61 61 59 59 58 57 55 54 54 54 53 52 49 47 42 40 38 36 38 37 39
52 51 53 52 54 54 53 56 56 55 55 60 61 58 58 58 56 56 55 55 53 52 50 49 46 42 40 37 37 36 37 38
52 53 50 53 56 57 58 56 52 48 54 57 60 60 61 62 57 56 57 54 53 52 51 50 46 41 38 38 40 37 36 29
56 55 56 58 60 56 53 54 54 54 56 58 60 61 61 60 57 57 57 53 53 52 51 48 45 42 30 34 41 40 36 36
55 57 58 59 55 53 49 53 53 53 56 59 60 60 60 59 56 57 56 54 54 53 51 48 43 43 41 41 41 42 39 36
55 55 55 59 57 53 51 49 50 51 54 58 58 59 58 58 57 56 56 53 54 53 51 46 45 45 42 41 40 40 38 38
54 55 56 59 58 54 51 49 50 51 52 55 58 59 58 57 57 56 56 55 53 52 50 48 44 44 44 42 40 38 39 40
54 54 54 55 56 55 54 49 47 50 52 54 57 59 59 56 56 56 55 54 54 53 49 50 47 43 43 42 43 43 36 35
56 54 53 54 56 57 55 54 50 51 54 57 59 59 58 56 56 56 54 53 53 53 52 50 45 44 43 45 43 40 41 38
56 54 53 54 55 57 58 56 54 50 54 57 58 58 57 57 55 56 55 53 52 51 52 49 46 46 42 42 42 40 39 38
57 54 52 53 55 56 58 58 57 55 54 58 57 57 56 56 55 54 53 53 51 51 50 49 46 45 45 43 43 38 37 33
56 55 55 53 56 58 59 58 59 58 59 58 58 58 58 56 54 52 52 51 51 49 46 47 46 45 43 42 43 41 39 37
Lifted_Index
-2 -1 -1 -1 -1 -1 -1 -1 -1 -1 -1 -1 -1 -0 -0 -1 -1 -1 -1 -1 -1 -0 1 2 3 5 7 8 8 7 7 6
-1 -1 0 -0 -0 -0 -0 -0 -1 -0 0 0 1 1 1 0 -0 -1 -1 -1 -1 0 1 3 4 6 7 8 8 7 7 7
-1 0 1 1 1 0 0 0 1 1 2 2 3 3 3 2 1 -1 -1 -1 0 1 2 4 5 6 7 8 8 8 8 8
0 1 2 3 2 2 2 2 2 2 3 3 4 3 3 2 1 0 -0 0 1 2 3 4 5 6 7 7 8 8 9 9
2 3 4 4 4 4 3 3 3 3 3 3 3 2 2 1 1 1 1 2 3 3 4 4 4 5 6 7 8 9 10 10
3 4 5 5 5 5 5 4 4 4 3 2 2 1 1 -0 -0 1 2 2 3 3 3 3 4 5 6 8 9 10 10 11
4 5 5 5 5 5 5 4 4 4 3 2 1 1 -0 -1 -0 0 1 2 2 3 3 3 4 5 7 8 9 10 10 10
5 5 5 6 6 6 5 5 4 3 2 1 0 -0 -1 -0 -0 0 1 1 2 2 3 4 4 6 7 9 9 10 10 10
5 5 6 6 6 6 5 4 3 2 1 0 -1 -1 -0 -0 -0 0 1 1 2 2 3 4 5 7 8 9 10 10 10 10
4 5 5 5 5 4 3 2 2 2 1 -1 -1 -1 -1 -1 -0 -0 0 1 2 2 3 4 5 7 8 9 10 10 10 10
2 2 3 3 2 1 1 1 1 1 -0 -1 -2 -2 -2 -2 -1 -0 0 1 2 2 3 4 5 7 8 9 9 9 10 11
0 0 1 0 -0 0 0 0 0 -0 -1 -2 -3 -3 -3 -2 -1 -0 1 1 2 2 3 4 5 7 8 8 8 8 9 10
-1 -1 -1 -1 -1 -0 1 1 0 -1 -2 -2 -3 -3 -2 -2 -1 -0 1 1 2 2 3 4 5 7 7 7 7 7 8 9
-1 -1 -1 -2 -2 -1 0 1 0 -0 -1 -2 -3 -2 -2 -1 -1 0 1 1 2 2 2 3 5 7 7 6 6 6 7 8
-2 -2 -2 -2 -2 -2 -0 0 0 -0 -1 -2 -2 -2 -2 -1 -0 0 1 1 2 2 3 4 5 6 7 6 5 5 6 6
-2 -2 -2 -2 -2 -2 -1 -0 0 -0 -1 -2 -2 -2 -1 -1 -0 0 1 1 2 2 3 4 5 6 7 6 6 5 5 5
-3 -2 -2 -2 -3 -3 -2 -1 -1 -1 -2 -2 -3 -2 -1 -0 -0 0 1 1 2 2 3 4 5 6 6 6 6 6 6 6
-3 -3 -2 -2 -3 -3 -3 -3 -2 -1 -2 -3 -3 -2 -1 -0 -0 -0 0 1 2 3 4 4 5 6 6 6 6 7 8 8
-4 -4 -3 -3 -3 -4 -4 -4 -3 -3 -3 -3 -3 -2 -1 -0 -0 -0 0 1 2 3 4 5 5 6 6 6 7 8 9 9
-5 -4 -4 -3 -3 -4 -4 -4 -4 -4 -4 -3 -3 -2 -1 -1 -0 -0 0 1 2 3 4 5 5 6 6 6 7 8 9 9